San Lorenzo, CA

9:44 PM PDT on September 30, 2016 (GMT -0700)
Hayward Executive

Weather History for KHWD - February, 2014

Change the Weather History Date:

Friday, February 7, 2014

  Actual Average Record
Temperature  
Mean Temperature 52 °F 52 °F  
Max Temperature 55 °F 59 °F 77 °F (2016)
Min Temperature 48 °F 44 °F 39 °F (2001)
Degree Days  
Heating Degree Days 13    
Month to date heating degree days 118  
Since 1 July heating degree days 1321  
Cooling Degree Days 0    
Month to date cooling degree days 0  
Year to date cooling degree days 0  
Growing Degree Days 2 (Base 50)    
Moisture  
Dew Point 49 °F    
Average Humidity 89    
Maximum Humidity 100    
Minimum Humidity 77    
Precipitation  
Precipitation 0.03 in - 0.58 in (1999)
Month to date precipitation 0.79  
Year to date precipitation 0.79  
Since 1 July precipitation 1.99  
Sea Level Pressure  
Sea Level Pressure 30.06 in    
Wind  
Wind Speed 10 mph (SSE)    
Max Wind Speed 21 mph    
Max Gust Speed 28 mph    
Visibility 8 miles    
Events Rain    
T = Trace of Precipitation, MM = Missing Value Source: NWS Daily Summary

Daily Weather History Graph

Daily Weather History Graph

Search for Another Location

Airport or City:

Trip Planner

Search our weather history database for the weather conditions in past years. The results will help you decide how hot, cold, wet, or windy it might be!

Date:

Astronomy

Feb. 07, 2014 Rise Set
Actual Time 7:06 AM PST 5:39 PM PST
Civil Twilight 6:39 AM PST 6:06 PM PST
Nautical Twilight 6:08 AM PST 6:37 PM PST
Astronomical Twilight 5:37 AM PST 7:08 PM PST
Moon 11:55 AM PST (2/7) 1:26 AM PST (2/7)
Length of Visible Light 11h 27m
Length of Day
10h 32m
First Quarter, 60% of the Moon is Illuminated
Feb 7
First Quarter
Feb 14
Full
Feb 22
Last Quarter
Mar 1
New
Mar 8
First Quarter

Hourly Weather History & Observations

Time (PST) Temp. Dew Point Humidity Pressure Visibility Wind Dir Wind Speed Gust Speed Precip Events Conditions
12:54 AM 48.9 °F 48.0 °F 97% 30.04 in 4.0 mi SSE 5.8 mph - 0.00 in Rain Light Rain
1:54 AM 48.0 °F 48.0 °F 100% 30.05 in 6.0 mi Calm Calm - 0.00 in   Overcast
2:24 AM 48.2 °F 48.2 °F 100% 30.03 in 8.0 mi SSE 5.8 mph - 0.00 in   Overcast
2:54 AM 48.9 °F 48.9 °F 100% 30.07 in 8.0 mi SSE 3.5 mph - 0.00 in   Overcast
3:22 AM 48.2 °F 48.2 °F 100% 30.05 in 9.0 mi Calm Calm - N/A   Overcast
3:51 AM 48.2 °F 48.2 °F 100% 30.04 in 10.0 mi SSE 4.6 mph - N/A   Overcast
3:54 AM 48.9 °F 48.0 °F 97% 30.07 in 10.0 mi SSE 5.8 mph - N/A   Mostly Cloudy
4:54 AM 48.0 °F 46.9 °F 96% 30.07 in 8.0 mi ESE 8.1 mph - N/A   Clear
5:54 AM 48.0 °F 46.9 °F 96% 30.06 in 10.0 mi SE 8.1 mph - N/A   Clear
6:54 AM 50.0 °F 46.9 °F 89% 30.08 in 10.0 mi SSE 5.8 mph - N/A   Clear
7:54 AM 50.0 °F 48.0 °F 93% 30.08 in 10.0 mi SSE 5.8 mph - N/A   Mostly Cloudy
8:54 AM 51.1 °F 48.9 °F 92% 30.12 in 9.0 mi SSE 6.9 mph - N/A   Overcast
9:54 AM 52.0 °F 48.9 °F 89% 30.12 in 8.0 mi SSE 4.6 mph - 0.00 in Rain Light Rain
10:54 AM 53.1 °F 50.0 °F 89% 30.13 in 7.0 mi SE 6.9 mph - 0.00 in Rain Light Rain
11:54 AM 53.1 °F 50.0 °F 89% 30.10 in 6.0 mi SE 11.5 mph - 0.00 in Rain Light Rain
12:54 PM 53.1 °F 50.0 °F 89% 30.09 in 8.0 mi SSE 11.5 mph - 0.00 in Rain Light Rain
1:54 PM 54.0 °F 51.1 °F 90% 30.06 in 9.0 mi SSE 12.7 mph 20.7 mph 0.00 in Rain Light Rain
2:54 PM 54.0 °F 50.0 °F 86% 30.05 in 6.0 mi SSE 9.2 mph - 0.00 in Rain Light Rain
3:23 PM 53.6 °F 50.0 °F 88% 30.02 in 5.0 mi SSE 12.7 mph - 0.00 in Rain Light Rain
3:34 PM 53.6 °F 50.0 °F 88% 30.01 in 5.0 mi SSE 12.7 mph 19.6 mph 0.00 in Rain Light Rain
3:54 PM 53.1 °F 50.0 °F 89% 30.03 in 6.0 mi SSE 11.5 mph - 0.00 in Rain Light Rain
4:31 PM 53.6 °F 50.0 °F 88% 30.01 in 2.0 mi SSE 13.8 mph - 0.02 in Rain Rain
4:38 PM 53.6 °F 48.2 °F 82% 30.00 in 2.5 mi SSE 13.8 mph - 0.02 in Rain Light Rain
4:46 PM 53.6 °F 48.2 °F 82% 30.01 in 4.0 mi South 12.7 mph - 0.02 in Rain Light Rain
4:54 PM 53.1 °F 50.0 °F 89% 30.04 in 9.0 mi South 12.7 mph - 0.02 in Rain Light Rain
5:54 PM 53.1 °F 48.9 °F 86% 30.05 in 9.0 mi SSE 9.2 mph - 0.01 in Rain Light Rain
6:09 PM 53.6 °F 48.2 °F 82% 30.01 in 5.0 mi SSE 10.4 mph - 0.00 in Rain Light Rain
6:31 PM 53.6 °F 48.2 °F 82% 30.02 in 10.0 mi South 12.7 mph - 0.00 in   Overcast
6:54 PM 53.1 °F 48.9 °F 86% 30.05 in 10.0 mi South 12.7 mph - 0.00 in   Overcast
7:03 PM 53.6 °F 48.2 °F 82% 30.02 in 10.0 mi South 10.4 mph - N/A   Overcast
7:24 PM 53.6 °F 48.2 °F 82% 30.04 in 10.0 mi South 10.4 mph - N/A   Overcast
7:34 PM 53.6 °F 48.2 °F 82% 30.04 in 10.0 mi South 13.8 mph - 0.00 in Rain Light Rain
7:54 PM 54.0 °F 48.9 °F 83% 30.06 in 10.0 mi South 16.1 mph 23.0 mph 0.00 in   Overcast
8:54 PM 55.0 °F 48.9 °F 80% 30.08 in 10.0 mi SSE 17.3 mph 23.0 mph 0.00 in   Overcast
9:54 PM 55.0 °F 48.0 °F 77% 30.08 in 10.0 mi SSE 18.4 mph - N/A   Overcast
10:54 PM 55.0 °F 48.0 °F 77% 30.09 in 10.0 mi SSE 19.6 mph 26.5 mph N/A   Overcast
11:13 PM 55.4 °F 48.2 °F 77% 30.06 in 10.0 mi SSE 19.6 mph 26.5 mph N/A   Overcast
11:54 PM 54.0 °F 48.9 °F 83% 30.10 in 9.0 mi SSE 17.3 mph 25.3 mph 0.00 in Rain Light Rain